TimeEST,TemperatureF,Dew PointF,Humidity,Sea Level PressureIn,VisibilityMPH,Wind Direction,Wind SpeedMPH,Gust SpeedMPH,PrecipitationIn,Events,Conditions,WindDirDegrees,DateUTC
12:19 AM,10.9,6.1,81,30.20,10.0,Calm,Calm,-,N/A,,Mostly Cloudy,0,2014-01-31 05:19:00
12:52 AM,12.0,7.0,80,30.19,10.0,Calm,Calm,-,N/A,,Mostly Cloudy,0,2014-01-31 05:52:00
1:19 AM,12.9,8.1,81,30.16,10.0,Calm,Calm,-,N/A,,Scattered Clouds,0,2014-01-31 06:19:00
1:49 AM,15.8,10.4,79,30.15,10.0,Calm,Calm,-,N/A,,Mostly Cloudy,0,2014-01-31 06:49:00
1:52 AM,14.0,10.0,84,30.16,10.0,Calm,Calm,-,N/A,,Mostly Cloudy,0,2014-01-31 06:52:00
2:16 AM,16.0,10.9,81,30.13,10.0,SE,3.5,-,N/A,,Partly Cloudy,130,2014-01-31 07:16:00
2:39 AM,19.0,15.1,85,30.14,10.0,SW,3.5,-,N/A,,Mostly Cloudy,230,2014-01-31 07:39:00
2:52 AM,21.9,18.0,85,30.14,10.0,SW,4.6,-,N/A,,Overcast,230,2014-01-31 07:52:00
3:52 AM,28.9,23.0,78,30.09,10.0,South,4.6,-,N/A,,Overcast,180,2014-01-31 08:52:00
4:52 AM,32.0,26.1,79,30.07,10.0,SSW,5.8,-,N/A,,Overcast,200,2014-01-31 09:52:00
5:52 AM,28.0,21.9,78,30.08,10.0,SW,5.8,-,N/A,,Overcast,230,2014-01-31 10:52:00
5:59 AM,28.0,23.0,81,30.07,10.0,SW,6.9,-,N/A,,Overcast,230,2014-01-31 10:59:00
6:52 AM,28.9,24.1,82,30.08,10.0,WSW,6.9,-,N/A,,Overcast,240,2014-01-31 11:52:00
7:38 AM,30.0,24.1,79,30.07,10.0,SSW,10.4,-,N/A,,Scattered Clouds,210,2014-01-31 12:38:00
7:52 AM,30.0,24.1,79,30.07,10.0,SSW,8.1,-,N/A,,Clear,210,2014-01-31 12:52:00
8:52 AM,32.0,23.0,69,30.09,10.0,WSW,13.8,23.0,N/A,,Scattered Clouds,240,2014-01-31 13:52:00
9:52 AM,33.1,18.0,54,30.10,10.0,WSW,13.8,-,N/A,,Mostly Cloudy,240,2014-01-31 14:52:00
10:52 AM,34.0,15.1,46,30.09,10.0,West,9.2,-,N/A,,Scattered Clouds,260,2014-01-31 15:52:00
11:52 AM,36.0,15.1,43,30.05,10.0,West,9.2,-,N/A,,Overcast,260,2014-01-31 16:52:00
12:52 PM,37.9,15.1,39,30.05,10.0,West,8.1,-,N/A,,Clear,260,2014-01-31 17:52:00
1:52 PM,39.9,15.1,36,30.04,10.0,West,5.8,-,N/A,,Clear,280,2014-01-31 18:52:00
2:52 PM,41.0,16.0,36,30.06,10.0,West,6.9,-,N/A,,Clear,280,2014-01-31 19:52:00
3:52 PM,39.9,16.0,38,30.07,10.0,WNW,4.6,-,N/A,,Mostly Cloudy,290,2014-01-31 20:52:00
4:52 PM,39.0,16.0,39,30.08,10.0,SW,3.5,-,N/A,,Mostly Cloudy,220,2014-01-31 21:52:00
5:52 PM,34.0,18.0,52,30.10,10.0,WSW,3.5,-,N/A,,Clear,250,2014-01-31 22:52:00
6:52 PM,34.0,18.0,52,30.13,10.0,Calm,Calm,-,N/A,,Overcast,0,2014-01-31 23:52:00
7:52 PM,34.0,19.9,56,30.15,10.0,Calm,Calm,-,N/A,,Overcast,0,2014-02-01 00:52:00
8:52 PM,35.1,19.0,52,30.17,10.0,WSW,5.8,-,N/A,,Overcast,240,2014-02-01 01:52:00
9:52 PM,34.0,19.9,56,30.18,10.0,WSW,3.5,-,N/A,,Overcast,240,2014-02-01 02:52:00
10:52 PM,34.0,19.0,54,30.20,10.0,West,3.5,-,N/A,,Overcast,270,2014-02-01 03:52:00
11:52 PM,35.1,19.0,52,30.21,10.0,Calm,Calm,-,N/A,,Overcast,0,2014-02-01 04:52:00